Showing default

KUIPER-00300, 68597

Orbit data source: Space-Track

KUIPER-00300, 68597 is a payload satellite owned by Kuiper Systems (US) in LEO that was launched on Sat, 04 Apr 2026 UTC via an ATLAS V 551 launch vehicle from the Air Force Eastern Test Range (AFETR). Payload-class satellites include a variety of spacecraft equipped with specific instruments for various scientific and technological missions. These include communications satellites like Starlink; space stations such as the ISS; scientific satellites like the Hubble; Earth observation satellites from companies like Planet Labs, Umbra, and HawkEye 360; GPS; miniature CubeSats for education and research; and military/defense satellites.

Loading next visibility...
Identifier
68597, 2026-072AA
Orbit
LEO
Country
Flag of USUS
Related business
Manufacturer
Kuiper Systems
Mission
Operational spacecraft
Bus & Motor
KUIPER, Unknown motor
Mass
~490 kg wet, ~490 kg dry
Launch date (UTC)
2026-04-04 (2 months ago)
Launch vehicle
ATLAS V 551
Launch site
Air Force Eastern Test Range (AFETR)
Object type
Payload
Rocket body
Debris
Shape & HBR
Unknown shape, 3.4 m
Radar Cross Section
Large (>1 m²)

Expand to show TLE details & history
Last TLE update: 1 week ago

TLE from 1 week ago
0 KUIPER-00300
1 68597U 26072AA  26155.25004630 -.01761527  00000-0 -14755+0 0  9993
2 68597  51.8876 242.0332 0008336   0.1143 100.7868 15.01530666  5498
Epoch: 2026-06-04T06:00Z
TLE epoch observation values (Epoch: 2026-06-04T06:00:04.000Z)
Latitude
50.71722°
Longitude
6.81189°
Altitude
569.125 km
Speed
7.582 km/s
True Right ascension
23h 18m 06s
True Declination
50° 32' 38"
Sunlit
Object was in daylight at epoch
Visualization orbit readout
Latitude
Unknown
Longitude
Unknown
Altitude
Unknown
Speed
Unknown
Apparent Right ascension
Unknown
Apparent Declination
Unknown
Sunlit
N/A
Visualization observer readout
Local Sidereal Time
03:29:30
Azimuth
Unknown
Elevation
Unknown
Doppler factor
Unknown
Orbital elements
Apogee altitude
568.419 km
Perigee altitude
556.847 km
Semi-major axis
6,940.77 km
Eccentricity
0.00083
Inclination
51.8876°
RAAN
242.0332°
Arg. of periapsis
0.1143°
True anomaly
100.88062°
Mean anomaly
100.7868°
Eccentric anomaly
100.83371°
Mean motion
3.75346 °/min
Orbital period
95.91 mins
BSTAR
-0.14755
Loading maneuver chart data...
Computing Atmospheric mass density...
Loading historical data...
Loading historical data...
Loading historical data...
Loading historical data...
Loading historical data...
Loading historical data...
Loading historical data...

Documentation

Showing up to 5 results
|